Location: Huesca
(42.1318°N, 0.4078°W)
Time: 16:30:05
(UTC+02:00)

ACS3 Solar Sail - Pass Details

Date: 25 June 2024
Orbit: 992 x 1023 km, 97.4° (Epoch: 11 July)

Event Time Altitude Azimuth Distance (km) Brightness Sun altitude
Exits shadow 23:14:42 17° 156° (SSE) 2,263 6.1 -13.7°
Maximum altitude 23:19:33 72° 75° (ENE) 1,043 4.9 -14.2°
Drops below altitude 10° 23:25:44 10° 352° (N) 2,765 8.1 -14.9°
Sets 23:28:14 0° 351° (N) 3,718 9.0 -15.2°
